Lid_Strength_Index
2 3 3 3 2 3 3 3 3 3 3 3 3 3 3 3 3 3 3 3 3 3 2 2 1 -0 4 8 7 2 -1 -1 0 1 3 4 5 6 7 7 6 8 6 5 5 5 5
3 3 3 3 3 3 3 3 3 3 3 3 3 4 4 4 3 3 3 3 3 3 3 2 1 0 4 11 5 0 -0 1 3 4 4 4 4 4 6 7 7 6 6 6 5 5 5
2 3 3 3 3 3 3 3 3 3 3 3 4 4 4 4 4 3 3 4 3 3 3 2 1 1 5 8 4 0 1 2 4 7 7 5 4 6 5 7 5 6 8 7 7 6 6
2 2 2 3 3 3 3 3 3 3 3 3 3 4 4 4 4 4 4 4 4 3 2 1 0 3 8 4 3 5 5 5 5 7 7 6 5 5 6 5 6 8 9 12 8 7 6
2 3 3 3 3 3 3 3 3 3 3 3 3 3 4 4 4 4 4 4 3 1 1 -0 3 6 6 1 6 5 5 6 7 7 7 4 6 7 6 9 11 10 14 11 10 7 7
3 3 3 3 3 3 3 3 3 3 3 3 4 4 4 4 4 5 5 4 3 2 2 0 1 6 5 6 6 6 6 6 7 7 6 9 10 11 9 10 15 13 13 11 12 8 8
3 3 3 3 3 3 3 3 3 3 3 3 4 4 4 4 4 5 6 5 6 7 5 6 6 6 4 4 4 6 6 8 8 8 10 11 12 13 11 8 8 10 11 11 10 7 9
3 3 3 3 3 3 3 3 3 3 3 3 4 4 4 4 5 5 7 5 5 5 7 4 4 4 4 5 6 5 5 8 9 11 10 10 12 10 9 7 9 9 11 11 9 7 9
3 3 3 3 3 3 3 3 4 4 4 3 4 4 4 5 5 5 6 5 3 5 8 6 5 5 4 5 6 6 6 8 9 11 11 12 9 9 9 8 10 11 11 11 10 8 8
3 3 3 3 3 3 3 4 4 4 4 4 4 4 5 5 7 7 5 4 3 4 11 9 8 5 5 5 7 4 5 7 9 10 10 12 8 9 11 9 9 13 8 8 9 11 15
3 3 3 3 3 3 4 4 4 4 4 4 4 4 5 6 9 8 5 4 4 6 15 7 8 5 7 7 8 7 5 7 9 9 10 11 10 12 12 10 7 9 7 8 9 11 12
4 3 4 4 4 4 4 4 4 4 4 4 5 5 5 7 9 7 6 6 6 11 14 9 7 8 8 9 8 6 7 7 7 9 10 9 8 10 10 9 9 6 8 9 10 11 16
4 4 4 4 4 4 4 4 4 4 5 5 5 6 6 6 11 8 7 6 11 15 8 9 10 9 10 9 9 8 9 9 10 12 13 11 10 10 9 12 10 10 14 16 16 17 15
4 4 4 4 4 4 4 4 4 5 5 5 6 6 7 7 8 7 7 9 16 10 9 8 9 10 10 10 10 10 10 11 10 12 14 14 13 11 9 10 11 12 14 16 18 18 15
4 4 4 4 4 4 4 4 4 5 5 5 6 8 8 6 6 7 8 13 12 10 8 9 10 11 11 10 10 11 11 11 10 11 12 15 13 9 9 9 9 12 14 13 15 16 17
4 4 4 4 4 4 4 4 5 5 5 6 9 9 7 5 5 6 9 12 10 8 7 9 12 10 12 11 12 12 12 9 10 10 10 12 14 11 9 9 10 10 11 14 16 17 18
4 4 4 5 4 4 4 4 5 5 5 6 9 9 5 4 5 8 12 11 8 7 7 9 11 12 12 11 10 12 12 9 8 9 11 12 13 12 12 12 12 12 13 13 15 16 17
4 4 4 5 5 5 4 5 5 6 6 7 11 10 5 4 9 10 11 9 7 7 7 8 9 10 11 11 12 11 11 10 7 10 11 11 14 15 12 11 10 11 11 14 16 16 16
5 5 4 5 4 4 4 5 5 6 6 8 13 11 5 5 11 12 10 9 7 8 8 9 8 9 10 12 12 10 9 6 8 9 11 11 14 15 14 12 11 12 13 14 14 16 16
4 4 5 5 4 4 4 5 5 6 6 8 12 11 9 7 8 10 11 9 9 6 8 8 7 9 10 10 10 10 9 7 7 9 5 7 14 14 15 13 12 13 11 12 13 15 16
4 4 4 4 4 4 4 4 5 6 6 8 11 11 9 11 10 10 11 9 8 9 8 8 9 8 9 12 10 11 9 8 6 6 9 11 14 14 13 11 10 10 11 10 13 13 13
4 4 4 4 3 3 3 4 4 5 6 9 12 11 10 10 10 12 12 11 9 9 9 9 9 8 9 11 10 12 10 10 10 8 9 11 13 10 12 10 10 10 10 11 11 12 13
2 3 3 3 3 3 2 3 4 4 5 9 8 9 10 11 10 12 12 10 9 8 8 7 7 9 8 8 7 8 8 8 9 9 10 11 14 13 15 11 10 13 10 11 10 10 11
1 2 2 2 2 3 3 3 3 3 4 6 8 9 11 12 11 11 9 8 8 9 10 7 6 8 6 6 7 7 7 8 8 9 9 10 12 15 15 13 15 11 9 9 10 9 9
1 2 1 1 1 1 2 2 3 3 3 6 7 9 10 13 10 9 9 9 8 8 9 7 7 6 6 8 10 11 11 10 9 8 9 10 12 13 14 16 12 9 9 9 10 10 7
0 1 2 2 1 1 1 1 1 2 3 6 6 6 8 10 11 8 9 9 11 11 9 8 7 7 8 9 10 14 15 13 12 10 10 11 12 12 14 15 16 11 7 7 8 12 7
0 1 1 1 2 2 1 1 1 1 2 4 6 5 6 9 9 9 10 10 9 10 11 9 9 8 8 11 12 13 13 10 13 13 11 11 12 13 14 14 12 9 7 6 12 11 7
0 0 1 1 1 1 2 2 1 1 1 3 6 5 6 7 8 7 7 9 9 10 11 10 8 8 9 12 12 12 12 11 12 11 13 12 13 14 13 15 15 7 7 10 9 8 6
0 0 0 0 0 1 1 2 1 0 1 2 7 5 3 6 8 6 6 6 6 7 10 10 10 10 9 11 10 11 12 12 12 14 10 12 11 12 11 12 8 7 7 6 6 8 6